"Time","Temp","Dewpoint","Humidity","Pressure","Direction","Speed","Gust","Precip","PrecipRate"
"00:04:58","55.6","53.9","94","30.06","93","0","0","0.00","0.00"
"00:09:56","55.4","53.7","94.2","30.06","93","0","0","0.00","0.00"
"00:14:56","55.2","53.8","95","30.07","94","0","0","0.00","0.00"
"00:19:56","55.1","53.7","95","30.07","94","0","0","0.00","0.00"
"00:24:56","54.9","53.5","95","30.07","93","0","0","0.00","0.00"
"00:29:56","54.7","53.3","95","30.07","93","0","0","0.00","0.00"
"00:34:59","54.6","53.2","95","30.07","93","0","0","0.00","0.00"
"00:39:58","54.4","53","95","30.07","93","0","0","0.00","0.00"
"00:44:58","54.3","52.9","95","30.07","94","0","0","0.00","0.00"
"00:49:57","54.3","52.8","95","30.07","93","0","1","0.00","0.00"
"00:54:57","54.3","53.1","95.8","30.07","93","0","1.2","0.00","0.00"
"00:59:56","54.2","53.1","95.8","30.08","93","0","0","0.00","0.00"
"01:04:58","54.2","52.9","95.4","30.08","94","0","0","0.00","0.00"
"01:09:56","54","52.7","95.4","30.08","93","0","1","0.00","0.00"
"01:14:58","53.9","52.5","95","30.08","93","0","1.2","0.00","0.00"
"01:19:57","53.7","52.3","95","30.08","93","0","0","0.00","0.00"
"01:24:59","53.6","52.2","95","30.08","93","0","0","0.00","0.00"
"01:29:59","53.5","52.1","95","30.08","93","0","0","0.00","0.00"
"01:34:58","53.3","51.9","95","30.08","93","0","0","0.00","0.00"
"01:39:58","53.2","51.8","95","30.08","93","0","0","0.00","0.00"
"01:44:58","53","51.6","95","30.09","93","0","0","0.00","0.00"
"01:49:57","52.9","51.5","95","30.09","93","0","0","0.00","0.00"
"01:54:56","52.8","51.6","95.8","30.09","93","0","0","0.00","0.00"
"01:59:56","52.6","51.3","95.3","30.09","93","0","1.2","0.00","0.00"
"02:04:58","52.6","51.3","95.6","30.09","93","0.3","2.3","0.00","0.00"
"02:09:56","52.5","51.4","96","30.09","93","0","0","0.00","0.00"
"02:14:59","52.4","51.3","96","30.09","93","0","0","0.00","0.00"
"02:19:59","52.3","51.2","96","30.09","93","0","0","0.00","0.00"
"02:24:59","52.2","51.1","96","30.09","93","0","0","0.00","0.00"
"02:29:57","52.1","50.9","95.8","30.09","93","0","0","0.00","0.00"
"02:34:57","52","50.9","96","30.09","93","0","0","0.00","0.00"
"02:39:59","52","50.9","96","30.09","93","0","0","0.00","0.00"
"02:44:58","52","50.9","96","30.10","94","0","0","0.00","0.00"
"02:49:57","51.9","50.8","96","30.10","94","0","0","0.00","0.00"
"02:54:56","51.8","50.7","96","30.10","93","0","0","0.00","0.00"
"02:59:58","51.6","50.5","96","30.10","93","0","0","0.00","0.00"
"03:04:56","51.5","50.3","95.7","30.10","93","0","0","0.00","0.00"
"03:09:58","51.4","50","95","30.10","93","0","0","0.00","0.00"
"03:14:57","51.2","49.8","95","30.10","93","0","0","0.00","0.00"
"03:19:59","51.1","49.9","95.5","30.10","93","0","1.2","0.00","0.00"
"03:24:59","51","49.9","96","30.10","93","0","0","0.00","0.00"
"03:29:58","51","49.9","96","30.10","93","0","0","0.00","0.00"
"03:34:58","51","49.9","96","30.10","93","0","0","0.00","0.00"
"03:39:58","51","49.9","96","30.10","93","0","0","0.00","0.00"
"03:44:56","51","49.9","96","30.11","93","0","0","0.00","0.00"
"03:49:59","50.9","49.8","96","30.11","93","0","0","0.00","0.00"
"03:54:59","50.8","49.7","96","30.11","93","0","0","0.00","0.00"
"03:59:55","50.8","49.7","96","30.12","77","0.3","3.5","0.00","0.00"
"04:04:57","50.8","49.7","96","30.12","73","0","1.2","0.00","0.00"
"04:09:59","50.7","49.6","96","30.12","73","0","0","0.00","0.00"
"04:14:58","50.6","49.5","96","30.12","73","0","0","0.00","0.00"
"04:19:58","50.5","49.4","96","30.12","73","0","0","0.00","0.00"
"04:24:58","50.4","49.3","96","30.12","73","0","0","0.00","0.00"
"04:29:57","50.3","49.2","96","30.13","73","0","0","0.00","0.00"
"04:34:57","50.2","48.9","95.4","30.13","73","0","0","0.00","0.00"
"04:39:59","50.1","48.8","95.4","30.13","73","0.1","1.2","0.00","0.00"
"04:44:59","50","48.9","96","30.13","13","1.1","3","0.00","0.00"
"04:49:58","50.2","49.1","96","30.13","334","1","3.5","0.00","0.00"
"04:54:57","50.3","49.2","96","30.13","342","0.7","3","0.00","0.00"
"04:59:55","50.5","49.1","95","30.13","345","0.7","4","0.00","0.00"
"05:04:57","50.5","49","94.4","30.13","358","1.7","4","0.00","0.00"
"05:09:56","50.7","49","94","30.13","355","0.2","2.3","0.00","0.00"
"05:14:57","50.6","48.9","94","30.14","355","0.4","2.3","0.00","0.00"
"05:19:57","50.6","48.9","94","30.14","355","0.3","2.3","0.00","0.00"
"05:24:56","50.6","48.8","93.5","30.14","339","0.7","4","0.00","0.00"
"05:29:59","50.5","48.6","93","30.15","325","0.5","3","0.00","0.00"
"05:34:59","50.5","48.6","93","30.15","328","0.5","3.5","0.00","0.00"
"05:39:58","50.4","48.5","93","30.15","331","0.1","1.2","0.00","0.00"
"05:44:58","50.4","48.5","93","30.16","331","0","0","0.00","0.00"
"05:49:58","50.3","48.4","93","30.16","292","0","0","0.00","0.00"
"05:54:59","50.2","48.1","92.2","30.16","292","0","0","0.00","0.00"
"05:59:59","50.3","48","91.6","30.17","292","0","0","0.00","0.00"
"06:04:57","50.4","48.2","91.8","30.17","292","0","0","0.00","0.00"
"06:09:56","50.5","48.3","92","30.17","292","0","0","0.00","0.00"
"06:14:59","50.4","48.4","92.5","30.18","292","0","0","0.00","0.00"
"06:19:59","50.4","48.5","93","30.18","292","0","0","0.00","0.00"
"06:24:58","50.3","48.4","93","30.18","292","0","0","0.00","0.00"
"06:29:57","50.4","48.5","93","30.18","292","0","0","0.00","0.00"
"06:34:56","50.4","48.5","93.1","30.18","292","0","0","0.00","0.00"
"06:39:59","50.5","48.8","94","30.18","292","0","0","0.00","0.00"
"06:44:57","50.7","49","94.1","30.18","292","0","0","0.00","0.00"
"06:49:56","51","49.6","95","30.18","292","0","0","0.00","0.00"
"06:54:56","51.3","49.9","95","30.18","292","0","0","0.00","0.00"
"06:59:58","51.4","49.9","94.5","30.19","292","0","0","0.00","0.00"
"07:04:56","51.6","49.9","94","30.19","292","0","0","0.00","0.00"
"07:09:58","51.8","50.1","94","30.19","292","0","0","0.00","0.00"
"07:14:57","52.1","50.1","93.1","30.19","292","0","0","0.00","0.00"
"07:19:56","52.5","50.4","92.8","30.19","292","0","0","0.00","0.00"
"07:24:59","52.9","50.9","92.9","30.19","292","0","0","0.00","0.00"
"07:29:58","53.4","50.8","90.9","30.20","292","0.1","2","0.00","0.00"
"07:34:57","54","50.9","89.1","30.20","292","0.7","2.3","0.00","0.00"
"07:39:59","54.8","51","87.2","30.20","296","0.4","2.3","0.00","0.00"
"07:44:58","55.5","51.3","85.8","30.21","277","1.2","4","0.00","0.00"
"07:49:57","56.1","51.4","84.3","30.21","262","1.3","3.5","0.00","0.00"
"07:54:56","56.5","51.5","83.1","30.21","263","1.1","3.5","0.00","0.00"
"07:59:58","57.1","51.7","82.1","30.21","259","1.3","3.5","0.00","0.00"
"08:04:56","57.6","52","81.9","30.21","257","0.7","4","0.00","0.00"
"08:09:58","57.9","52.3","81.6","30.21","257","0.7","2.3","0.00","0.00"
"08:14:57","58.4","52.6","81.1","30.22","254","0.8","3","0.00","0.00"
"08:19:59","58.9","52.6","79.9","30.22","244","0.6","3.5","0.00","0.00"
"08:24:58","59.2","52.4","78.2","30.22","280","1.1","3.5","0.00","0.00"
"08:29:57","59.6","52.5","77.3","30.22","306","1.4","4","0.00","0.00"
"08:34:56","59.8","52.5","76.6","30.22","5","0.5","2.3","0.00","0.00"
"08:39:59","60.2","52.5","75.7","30.22","5","1.2","3.5","0.00","0.00"
"08:44:56","60.6","52.6","74.7","30.23","360","0","1.2","0.00","0.00"
"08:49:59","61","52.2","72.7","30.23","327","0.5","5","0.00","0.00"
"08:54:58","61.4","51.5","70.1","30.23","338","0.6","5","0.00","0.00"
"08:59:58","61.8","51.5","69.1","30.23","340","0.9","6","0.00","0.00"
"09:04:56","61.9","51.2","67.8","30.23","341","0.2","3.5","0.00","0.00"
"09:09:58","62.3","51.9","68.8","30.23","327","0.5","3.5","0.00","0.00"
"09:14:57","62.8","51.2","66","30.24","331","1.5","6","0.00","0.00"
"09:19:56","63.2","51.6","65.9","30.24","336","1.7","5.8","0.00","0.00"
"09:24:59","64","52.3","66","30.24","0","1.7","6","0.00","0.00"
"09:29:58","64.3","52","64.2","30.24","340","1.9","5.8","0.00","0.00"
"09:34:57","64.6","52.1","63.9","30.24","322","2.5","7","0.00","0.00"
"09:39:59","64.7","51.4","62.2","30.24","294","1.4","3.5","0.00","0.00"
"09:44:58","64.9","51.6","62.1","30.24","348","2.2","5","0.00","0.00"
"09:49:57","65.2","51.8","62","30.24","6","0.6","3.5","0.00","0.00"
"09:54:56","65.4","52","62","30.24","9","0.1","3","0.00","0.00"
"09:59:59","65.9","52.1","61","30.24","43","1.1","3.5","0.00","0.00"
"10:04:58","66.5","52.4","60.6","30.24","60","0.8","2.3","0.00","0.00"
"10:09:59","67","51.1","56.7","30.24","92","1.6","4","0.00","0.00"
"10:14:58","66.9","50.8","56.2","30.24","61","1.6","3.5","0.00","0.00"
"10:19:58","67.1","51.6","57.5","30.24","93","1","4","0.00","0.00"
"10:24:57","67.5","51","55.6","30.24","55","0.9","2.3","0.00","0.00"
"10:29:57","67.8","49.7","52.6","30.24","20","1.6","4","0.00","0.00"
"10:34:56","68","49.5","51.7","30.24","62","1.7","4","0.00","0.00"
"10:39:59","68.5","50.5","52.6","30.24","36","1.5","4","0.00","0.00"
"10:44:59","69","49.3","49.5","30.24","120","1.3","3.5","0.00","0.00"
"10:49:58","69.3","49.5","49.4","30.24","75","1.8","4","0.00","0.00"
"10:54:58","69.2","51","52.4","30.24","60","1.7","4","0.00","0.00"
"10:59:58","69.4","50.4","51","30.25","43","0.9","3.5","0.00","0.00"
"11:04:56","69.7","50.6","50.7","30.25","353","0.5","4","0.00","0.00"
"11:09:57","70.1","50.1","49.1","30.25","12","1.6","5","0.00","0.00"
"11:14:57","70","49.7","48.6","30.25","81","1.5","4","0.00","0.00"
"11:19:56","70.1","50.7","50.3","30.25","68","1.7","5","0.00","0.00"
"11:24:59","70.1","50","48.9","30.25","73","1.4","5","0.00","0.00"
"11:29:58","70.2","50.5","49.6","30.25","357","1.8","5","0.00","0.00"
"11:34:58","70.7","52.1","52","30.25","54","1.5","6","0.00","0.00"
"11:39:56","70.8","51.6","50.7","30.25","49","2.5","7","0.00","0.00"
"11:44:59","70.9","50.7","49","30.25","337","2.4","5.8","0.00","0.00"
"11:49:58","71","50.9","49.1","30.25","312","1.2","3.5","0.00","0.00"
"11:54:57","71.3","50.7","48.2","30.25","16","1.2","6","0.00","0.00"
"11:59:56","71.5","50.5","47.7","30.25","330","1.9","5","0.00","0.00"
"12:04:57","71.5","50","46.7","30.25","259","1.1","4","0.00","0.00"
"12:09:59","71.6","51.2","48.7","30.25","201","1.1","4","0.00","0.00"
"12:14:58","71.6","51.9","49.9","30.25","81","0.1","1.2","0.00","0.00"
"12:19:57","71.7","51.2","48.5","30.25","353","0.3","5","0.00","0.00"
"12:24:56","71.9","50.5","47","30.25","347","0.5","3.5","0.00","0.00"
"12:29:59","72.1","51.1","47.6","30.25","357","0.6","6","0.00","0.00"
"12:34:58","72.5","51.3","47.4","30.25","352","3","7","0.00","0.00"
"12:39:56","72.7","51.9","48","30.25","347","1.6","4","0.00","0.00"
"12:44:56","72.7","50.5","45.6","30.26","93","1","3.5","0.00","0.00"
"12:49:58","72.5","50.9","46.7","30.26","334","1.4","6","0.00","0.00"
"12:54:57","72.7","52","48.4","30.26","239","1.1","4","0.00","0.00"
"12:59:58","72.7","52.5","49.2","30.26","191","1.2","3.5","0.00","0.00"
"13:04:59","73.1","52.5","48.4","30.25","49","1","3.5","0.00","0.00"
"13:09:57","73.5","50.7","44.8","30.25","109","2.1","6","0.00","0.00"
"13:14:59","73","50.7","45.4","30.25","174","1.9","4","0.00","0.00"
"13:19:57","72.8","51.7","47.5","30.25","177","2","4","0.00","0.00"
"13:24:59","72.9","53.2","50.2","30.25","156","1.4","3.5","0.00","0.00"
"13:29:58","73.2","52.9","49","30.25","24","2","6","0.00","0.00"
"13:34:58","73.3","51.1","45.7","30.25","340","3.1","7","0.00","0.00"
"13:39:57","73.6","52.7","48.1","30.25","345","1.5","7","0.00","0.00"
"13:44:56","74.1","54.3","50.1","30.25","292","2.3","6","0.00","0.00"
"13:49:57","74.3","52.3","46.3","30.25","291","1.8","4.6","0.00","0.00"
"13:54:56","74.2","51","44.2","30.25","24","1.7","3.5","0.00","0.00"
"13:59:58","73.8","51.5","45.7","30.25","46","1.3","3.5","0.00","0.00"
"14:04:56","74","54.4","50.4","30.25","331","1.2","3.5","0.00","0.00"
"14:09:57","74.3","52","45.7","30.25","303","1.8","5","0.00","0.00"
"14:14:56","74.4","52.8","46.9","30.25","338","2.2","6","0.00","0.00"
"14:19:59","74.8","52.7","46.4","30.25","346","1.5","4","0.00","0.00"
"14:24:58","75","53.7","47.6","30.25","89","1.4","4","0.00","0.00"
"14:29:56","75","51.8","44.4","30.25","135","1.3","3.5","0.00","0.00"
"14:34:59","74.8","52.7","46.2","30.25","6","1.3","6","0.00","0.00"
"14:39:57","74.3","51.3","44.5","30.25","111","2.6","5.8","0.00","0.00"
"14:44:59","73.7","50.7","44.5","30.25","115","2.1","4","0.00","0.00"
"14:49:58","73.8","52.5","47.4","30.25","126","0.8","2.3","0.00","0.00"
"14:54:56","74.2","52.2","46.2","30.25","74","1.5","6","0.00","0.00"
"14:59:58","73.9","50.5","44","30.25","338","1","5.8","0.00","0.00"
"15:04:57","73.3","51.8","47","30.25","348","1.3","3.5","0.00","0.00"
"15:09:58","73.2","50.4","44.7","30.25","330","2.2","4","0.00","0.00"
"15:14:56","73.3","51.6","46.5","30.26","336","2.3","6","0.00","0.00"
"15:19:59","73.8","50.9","44.6","30.26","338","2.3","5","0.00","0.00"
"15:24:59","74.2","50.5","43.4","30.26","330","2.2","5","0.00","0.00"
"15:29:57","74.4","49.6","41.7","30.26","309","1.4","4","0.00","0.00"
"15:34:56","74.7","49.9","41.8","30.25","313","0.6","2.3","0.00","0.00"
"15:39:57","74.9","51.6","44.1","30.25","220","1.6","5","0.00","0.00"
"15:44:59","75.3","51.8","43.8","30.25","300","2.1","5","0.00","0.00"
"15:49:58","75.7","51.4","42.6","30.25","326","2.3","5","0.00","0.00"
"15:54:56","75.7","49.9","40.5","30.25","299","2.1","5","0.00","0.00"
"15:59:58","75.4","50.6","41.8","30.25","0","2.4","7","0.00","0.00"
"16:04:59","75.5","50.7","41.9","30.25","344","2.9","8.1","0.00","0.00"
"16:09:57","76","50.8","41.4","30.25","322","1.2","3.5","0.00","0.00"
"16:14:57","76.3","51.6","42.1","30.25","201","2.3","5","0.00","0.00"
"16:19:59","76.3","53.6","45.3","30.24","214","1.9","4","0.00","0.00"
"16:24:57","76.4","50.3","40.2","30.24","264","2","5","0.00","0.00"
"16:29:59","76.5","52.8","43.8","30.24","290","1.5","5","0.00","0.00"
"16:34:57","76.6","51.6","41.7","30.24","318","2.4","6","0.00","0.00"
"16:39:57","76.8","50.9","40.5","30.24","328","2.9","5.8","0.00","0.00"
"16:44:57","76.7","50.9","40.7","30.25","335","2","4.6","0.00","0.00"
"16:49:59","76.5","51","41","30.25","324","2","5","0.00","0.00"
"16:54:57","76.6","52.4","43.1","30.25","249","2.5","5","0.00","0.00"
"16:59:59","76.8","53.6","44.6","30.25","220","2.1","6","0.00","0.00"
"17:04:56","76.9","50.8","40.3","30.25","216","2","7","0.00","0.00"
"17:09:58","76.9","50.5","39.8","30.25","191","1.7","4","0.00","0.00"
"17:14:58","76.7","50.6","40","30.25","289","1.9","5","0.00","0.00"
"17:19:58","76.6","49.7","38.9","30.24","323","2.3","4.6","0.00","0.00"
"17:24:58","76.6","51.7","41.8","30.24","274","1.4","4","0.00","0.00"
"17:29:56","76.7","50.7","40.2","30.24","330","1.8","5","0.00","0.00"
"17:34:57","76.9","52.1","42.2","30.24","326","1.2","3.5","0.00","0.00"
"17:39:57","77","52.7","42.9","30.24","45","1.3","4","0.00","0.00"
"17:44:58","77","52.5","42.6","30.24","333","1.2","4","0.00","0.00"
"17:49:59","77.1","50.9","40","30.23","325","2.3","5","0.00","0.00"
"17:54:56","76.6","49.3","38.3","30.23","318","1.3","3.5","0.00","0.00"
"17:59:57","76.3","50","39.8","30.23","272","1.6","3.5","0.00","0.00"
"18:04:58","76","51","41.6","30.23","259","1.6","3.5","0.00","0.00"
"18:09:56","76","50.3","40.6","30.23","274","1.1","3.5","0.00","0.00"
"18:14:57","76.1","50.4","40.6","30.24","315","2","4","0.00","0.00"
"18:19:59","75.7","49.8","40.2","30.24","309","1.7","5","0.00","0.00"
"18:24:56","75.3","50","41.1","30.24","304","2.1","4.6","0.00","0.00"
"18:29:58","74.8","49.8","41.5","30.24","218","2.4","4","0.00","0.00"
"18:34:59","74.5","49.2","40.9","30.24","260","1.2","3.5","0.00","0.00"
"18:39:59","74.4","49.4","41.4","30.24","261","0.4","2.3","0.00","0.00"
"18:44:58","74.4","48.7","40.3","30.24","278","1.4","3.5","0.00","0.00"
"18:49:56","74.4","49.3","41.3","30.24","294","0.7","3","0.00","0.00"
"18:54:57","74.1","50.2","43.1","30.24","276","1.5","4","0.00","0.00"
"18:59:59","73.8","51.1","44.9","30.24","265","1.3","3.5","0.00","0.00"
"19:04:56","73.5","50.6","44.5","30.24","262","0.9","3.5","0.00","0.00"
"19:09:58","73.2","50.2","44.3","30.24","261","1","3","0.00","0.00"
"19:14:59","73","50.1","44.6","30.24","227","1.5","3.5","0.00","0.00"
"19:19:57","72.8","49.9","44.5","30.24","235","0.8","3.5","0.00","0.00"
"19:24:59","72.8","49.1","43.1","30.24","264","1.2","3.5","0.00","0.00"
"19:29:56","72.7","49.9","44.7","30.25","273","1","3.5","0.00","0.00"
"19:34:57","72.4","50.2","45.5","30.25","273","0.4","2","0.00","0.00"
"19:39:57","72.1","49.6","44.9","30.25","273","0.5","2.3","0.00","0.00"
"19:44:59","71.9","49.5","45","30.25","273","0.6","2.3","0.00","0.00"
"19:49:56","71.6","52.4","50.8","30.25","273","0.1","1.2","0.00","0.00"
"19:54:58","71.1","54.6","56","30.25","273","0.1","1.2","0.00","0.00"
"19:59:59","70.4","54.7","57.6","30.25","273","0.2","1.2","0.00","0.00"
"20:04:57","69.6","54.4","58.3","30.25","273","0","1.2","0.00","0.00"
"20:09:59","68.9","54.1","59.2","30.25","273","0.2","2.3","0.00","0.00"
"20:14:56","68.3","54.5","61.5","30.25","270","0.3","1.2","0.00","0.00"
"20:19:58","67.8","54.4","62.4","30.25","266","0","1.2","0.00","0.00"
"20:24:56","67.3","54.4","63.1","30.25","266","0","0","0.00","0.00"
"20:29:58","66.9","54.8","65.1","30.25","266","0","0","0.00","0.00"
"20:34:57","66.3","54.5","65.7","30.25","266","0","0","0.00","0.00"
"20:39:58","65.8","55","68.2","30.25","266","0","0","0.00","0.00"
"20:44:57","65.3","54.9","69","30.26","266","0","0","0.00","0.00"
"20:49:56","64.8","54.5","69.3","30.26","266","0","0","0.00","0.00"
"20:54:59","64.4","54.7","70.9","30.26","266","0","0","0.00","0.00"
"20:59:58","63.9","54.7","72","30.27","267","0","0","0.00","0.00"
"21:04:56","63.5","54.6","72.6","30.27","267","0","0","0.00","0.00"
"21:09:58","63.2","54.4","73.2","30.27","267","0","0","0.00","0.00"
"21:14:56","62.9","55.1","75.5","30.27","267","0","0","0.00","0.00"
"21:19:58","62.8","55.9","78.1","30.27","267","0","0","0.00","0.00"
"21:24:56","62.8","56.4","79.7","30.27","267","0","0","0.00","0.00"
"21:29:58","62.5","55.7","78.5","30.28","267","0","0","0.00","0.00"
"21:34:57","62","55.3","78.6","30.28","267","0","0","0.00","0.00"
"21:39:58","61.6","55.1","79.2","30.28","267","0","0","0.00","0.00"
"21:44:56","61.4","55.9","82.2","30.28","267","0","0","0.00","0.00"
"21:49:58","61.2","55.9","82.8","30.28","267","0","0","0.00","0.00"
"21:54:56","60.8","55.3","82","30.28","267","0","0","0.00","0.00"
"21:59:57","60.5","55.4","83.5","30.29","267","0","0","0.00","0.00"
"22:04:59","60.3","55.7","84.8","30.29","267","0","0","0.00","0.00"
"22:09:57","60.2","55.7","85","30.29","267","0","0","0.00","0.00"
"22:14:58","60","55.5","85","30.30","267","0","0","0.00","0.00"
"22:19:56","59.9","55.4","85","30.30","267","0","0","0.00","0.00"
"22:24:59","59.6","55.3","85.5","30.30","267","0","0","0.00","0.00"
"22:29:57","59.4","55.2","86","30.30","267","0","0","0.00","0.00"
"22:34:59","59.2","55","86.2","30.30","267","0","0","0.00","0.00"
"22:39:56","59","55.1","87","30.30","267","0","0","0.00","0.00"
"22:44:58","58.8","54.9","87","30.30","267","0","0","0.00","0.00"
"22:49:56","58.5","54.6","87.1","30.30","266","0","0","0.00","0.00"
"22:54:58","58.2","54.8","88.3","30.30","266","0","0","0.00","0.00"
"22:59:56","58","54.9","89.2","30.30","266","0","0","0.00","0.00"
"23:04:58","58","55.1","90","30.30","266","0","0","0.00","0.00"
"23:09:56","58","55","89.7","30.30","266","0","0","0.00","0.00"
"23:14:58","57.9","55","90","30.30","266","0","0","0.00","0.00"
"23:19:56","57.7","54.8","90","30.30","266","0","0","0.00","0.00"
"23:24:58","57.5","54.6","90","30.30","266","0","0","0.00","0.00"
"23:29:52","57.3","54.4","90","30.30","266","0","0","0.00","0.00"
"23:34:58","57.1","54.2","90","30.30","266","0","0","0.00","0.00"
"23:39:58","57","54.1","90","30.30","266","0","0","0.00","0.00"
"23:44:57","56.8","54","90.3","30.31","266","0","0","0.00","0.00"
"23:49:58","56.6","54","91","30.31","266","0","0","0.00","0.00"
"23:54:56","56.4","53.9","91.1","30.31","266","0","0","0.00","0.00"
"23:59:58","56.4","54.1","92","30.31","266","0","0","0.00","0.00"
